[[{"header":{"parameterUnit":"m.s-1","parameterCategory":1,"la1":30.2991,"la2":30.254,"lo1":-89.0895,"lo2":-89.0444,"dy":0.0017,"dx":0.0017,"nx":28,"ny":28,"refTime":"2023-11-09T03:00:00:Z","depth":0,"parameterNumber":2,"parameterNumberName":"U-component_of_WINDS"},"data":[0,0,0,0,0,0,0,0,0,0,0,0,0,0,0,0,0,0,0,0,0,0,0,0,0,0,0,0,0,0,0,0,0,0,0,0,0,0,0,0,0,0,0,0,0,0,0,0,0,0,0,0,0,0,0,0,0,0,0.2769,0.277,0,0.284,0.2841,0.2842,0.2841,0.284,0.2839,0.2838,0.2912,0.2915,0.2918,0,0,0,0,0,0,0,0,0,0,0,0,0,0.2634,0.2637,0.2769,0.277,0.2771,0.284,0.2841,0.2842,0.2841,0.284,0.2839,0.2838,0.2911,0.2915,0.2918,0,0,0,0,0,0,0,0,0,0,0,0,0,0.2698,0.2638,0.2769,0.2779,0.278,0.284,0.2841,0.2842,0.2841,0.284,0.2839,0.2837,0.291,0.2914,0.2918,0.2973,0,0,0.2932,0.2933,0,0,0,0,0,0,0,0,0.2694,0.2703,0.2777,0.2778,0.278,0.283,0.282,0.2886,0.2842,0.2818,0.2838,0.2837,0.2886,0.2892,0.2909,0.2976,0.298,0.2932,0.2934,0.2936,0.2938,0,0,0,0,0,0,0,0.269,0.27,0.2797,0.2778,0.278,0.278,0.2788,0.2833,0.2859,0.282,0.282,0.2829,0.2887,0.2905,0.291,0.2981,0.2932,0.2936,0.2938,0.294,0.3096,0.3098,0,0,0,0,0,0,0.2683,0.2696,0.2795,0.2799,0.2733,0.2784,0.2792,0.2816,0.2859,0.2864,0.283,0.2828,0.2898,0.2905,0.2913,0.2979,0.2936,0.294,0.2943,0.3094,0.3096,0.3098,0,0,0,0,0,0,0.268,0.2692,0.2792,0.2748,0.276,0.2787,0.2814,0.2818,0.2835,0.2866,0.2871,0.2843,0.2897,0.2907,0.2958,0.2982,0.2942,0.2946,0.3093,0.3095,0.3097,0.3112,0,0,0,0,0,0,0.2676,0.2691,0.2712,0.2748,0.2763,0.2836,0.2815,0.282,0.2843,0.2841,0.288,0.2885,0.2897,0.2951,0.2962,0.2987,0.2949,0.3091,0.3094,0.3096,0.311,0.3115,0.3119,0,0,0,0,0,0.2672,0.2714,0.2713,0.2725,0.2789,0.2837,0.2845,0.2858,0.2845,0.2866,0.2885,0.2883,0.2977,0.2957,0.2969,0.2995,0.3089,0.3093,0.3096,0.3108,0.3114,0.3119,0,0,0,0,0,0,0.268,0.2719,0.2718,0.2773,0.2802,0.2837,0.2864,0.2864,0.2898,0.2895,0.291,0.2919,0.2969,0.2987,0.2964,0.305,0.3032,0.3038,0.3036,0.3043,0.3047,0.3042,0.2953,0,0,0,0,0,0.2688,0.2723,0.2755,0.2801,0.2815,0.2837,0.2858,0.2865,0.2896,0.2908,0.2931,0.2961,0.2997,0.3021,0.3056,0.3112,0.3121,0.3137,0.3141,0.3145,0.315,0.3181,0.3188,0.311,0.311,0.311,0,0,0.2705,0.2731,0.2752,0.2803,0.2826,0.2862,0.2847,0.2886,0.2913,0.2914,0.2963,0.2981,0.3016,0.3069,0.3094,0.3086,0.3174,0.315,0.3152,0.3156,0.3186,0.3193,0.32,0.3112,0.3112,0.3111,0,0,0.2755,0.2778,0.2818,0.2841,0.2876,0.2891,0.29,0.2935,0.2947,0.2996,0.2998,0.303,0.3092,0.3117,0.3137,0.3196,0.3195,0.3207,0.3232,0.3261,0.3268,0.3273,0.3294,0.3301,0.3212,0.3212,0.3212,0,0.2773,0.2827,0.2839,0.2878,0.29,0.2902,0.2943,0.2965,0.301,0.3025,0.3015,0.3092,0.3116,0.3175,0.3189,0.3206,0.3217,0.3202,0.3266,0.3271,0.3277,0.3297,0.3304,0.3213,0.3213,0.3213,0.3212,0,0.2846,0.2884,0.2912,0.2955,0.298,0.302,0.3038,0.3062,0.3067,0.3083,0.3133,0.3161,0.3201,0.3216,0.3221,0.3276,0.327,0.3262,0.3244,0.3285,0.3304,0.3312,0.3215,0.3214,0.3214,0.3213,0,0,0.2904,0.2952,0.2962,0.2981,0.302,0.3049,0.3089,0.3128,0.3148,0.3179,0.3213,0.3265,0.3258,0.3282,0.329,0.3316,0.336,0.3306,0.3307,0.3315,0.3422,0.3427,0.3435,0.336,0.3361,0.3363,0.3419,0,0.2958,0.3028,0.304,0.3102,0.3137,0.3139,0.3173,0.32,0.3216,0.3248,0.3265,0.3301,0.329,0.3304,0.333,0.3349,0.3382,0.3345,0.3392,0.3393,0.3383,0.3445,0.3451,0.3502,0.3426,0.3427,0.3428,0,0.3031,0.3063,0.3127,0.316,0.3176,0.3206,0.3243,0.3273,0.3304,0.3313,0.3339,0.3344,0.3385,0.3365,0.3422,0.3397,0.3417,0.3429,0.3431,0.3436,0.3413,0.3452,0.3519,0.3527,0.344,0.3439,0.3438,0,0.3066,0.3125,0.3172,0.3188,0.3228,0.3249,0.3267,0.3296,0.3319,0.3351,0.3366,0.3402,0.3422,0.345,0.3465,0.3449,0.3521,0.3502,0.353,0.353,0.3545,0.3544,0.3617,0.3558,0.3558,0.3558,0.3557,0,0.3125,0.3165,0.3188,0.3216,0.3261,0.3274,0.3318,0.3335,0.3361,0.3393,0.3397,0.3427,0.3444,0.3477,0.3489,0.3534,0.3543,0.3552,0.3555,0.3552,0.355,0.3565,0.3561,0.356,0.3559,0.3559,0.3559,0,0.3172,0.3189,0.324,0.3273,0.3282,0.3314,0.3342,0.337,0.3385,0.3425,0.3436,0.3459,0.3498,0.3515,0.3563,0.357,0.3622,0.3622,0.3611,0.3612,0.3639,0.3636,0.3723,0.3735,0.3669,0.3669,0.367,0,0.3209,0.3239,0.3276,0.3297,0.3315,0.335,0.3373,0.3387,0.341,0.3447,0.3471,0.3509,0.3541,0.3602,0.3623,0.366,0.3661,0.3689,0.3666,0.3662,0.3661,0.3659,0.3662,0.3693,0.3694,0.3694,0.3695,0,0.3272,0.3279,0.3311,0.3347,0.3374,0.3403,0.3431,0.3448,0.3467,0.3493,0.3532,0.3556,0.3605,0.3643,0.368,0.3699,0.37,0.3701,0.371,0.3707,0.3699,0.3703,0.3622,0.3699,0.3699,0.3699,0.3698,0.3698,0.3315,0.3342,0.3371,0.3408,0.343,0.3456,0.3484,0.3502,0.3534,0.3574,0.3581,0.3622,0.3652,0.3703,0.3722,0.3755,0.3748,0.376,0.3763,0.3766,0.3767,0.3694,0.3762,0.3762,0.3762,0.3762,0.3761,0,0.3378,0.3397,0.343,0.3469,0.3497,0.3495,0.3526,0.355,0.3586,0.3614,0.3645,0.3689,0.3726,0.375,0.3787,0.3809,0.381,0.3818,0.3816,0.3821,0.3772,0.376,0.3816,0.3816,0.3816,0.3816,0.3816,0.3816,0.3414,0.3459,0.347,0.3526,0.3545,0.3585,0.3603,0.3627,0.3649,0.3698,0.3729,0.3744,0.377,0.3809,0.3843,0.3849,0.3862,0.387,0.3876,0.383,0.3824,0.3819,0.3808,0.3873,0.3873,0.3923,0.3923,0.3923]},{"header":{"parameterUnit":"m.s-1","parameterCategory":1,"la1":30.2991,"la2":30.254,"lo1":-89.0895,"lo2":-89.0444,"dy":0.0017,"dx":0.0017,"nx":28,"ny":28,"refTime":"2023-11-09T03:00:00:Z","depth":0,"parameterNumber":3,"parameterNumberName":"V-component_of_WINDS"},"data":[0,0,0,0,0,0,0,0,0,0,0,0,0,0,0,0,0,0,0,0,0,0,0,0,0,0,0,0,0,0,0,0,0,0,0,0,0,0,0,0,0,0,0,0,0,0,0,0,0,0,0,0,0,0,0,0,0,0,0.9708,0.9709,0,0.9807,0.9808,0.9809,0.9801,0.98,0.9798,0.9797,0.9904,0.9908,0.9912,0,0,0,0,0,0,0,0,0,0,0,0,0,0.9516,0.9519,0.9708,0.9709,0.971,0.9807,0.9808,0.981,0.9802,0.98,0.9798,0.9796,0.9902,0.9907,0.9912,0,0,0,0,0,0,0,0,0,0,0,0,0,0.9606,0.952,0.9707,0.9718,0.9719,0.9807,0.9808,0.981,0.9802,0.98,0.9797,0.9795,0.9901,0.9907,0.9913,0.9998,0,0,0.9933,0.9935,0,0,0,0,0,0,0,0,0.9601,0.9613,0.9715,0.9717,0.9719,0.9789,0.978,0.9873,0.9802,0.9771,0.9797,0.9794,0.9868,0.9877,0.9901,1.0003,1.0008,0.9933,0.9937,0.994,0.9942,0,0,0,0,0,0,0,0.9594,0.9608,0.9747,0.9716,0.9719,0.9719,0.9729,0.9797,0.9831,0.9773,0.9773,0.9785,0.9869,0.9894,0.9903,1.0009,0.9933,0.9939,0.9943,0.9945,1.0188,1.0191,0,0,0,0,0,0,0.9585,0.9603,0.9744,0.975,0.9653,0.9724,0.9736,0.9769,0.983,0.9837,0.9786,0.9784,0.9885,0.9896,0.9907,1.0012,0.994,0.9946,0.9949,1.0186,1.0189,1.0192,0,0,0,0,0,0,0.9581,0.9598,0.974,0.9677,0.9695,0.973,0.9768,0.9772,0.9798,0.984,0.9846,0.9806,0.9883,0.9898,0.9975,1.0015,0.9949,0.9955,1.0183,1.0187,1.019,1.0221,0,0,0,0,0,0,0.9575,0.9596,0.9628,0.9677,0.9698,0.9806,0.977,0.9776,0.9809,0.9806,0.986,0.9867,0.9883,0.9966,0.9982,1.0023,0.9959,1.0179,1.0184,1.0189,1.0217,1.0226,1.0233,0,0,0,0,0,0.9569,0.9633,0.9629,0.9646,0.9738,0.9808,0.982,0.9835,0.9812,0.9845,0.9872,0.9866,1.0008,0.9974,0.9992,1.0035,1.0177,1.0183,1.0189,1.0213,1.0224,1.0233,0,0,0,0,0,0,0.9589,0.964,0.9636,0.9718,0.9759,0.9806,0.9848,0.9845,0.9895,0.989,0.9908,0.9921,0.9999,1.0025,0.9986,1.0121,1.009,1.0099,1.0102,1.0113,1.0121,1.0114,0.9965,0,0,0,0,0,0.9603,0.9654,0.9696,0.9764,0.9785,0.9813,0.9844,0.9852,0.9895,0.9912,0.9945,0.9989,1.0043,1.0079,1.0132,1.022,1.0233,1.0259,1.0267,1.0273,1.0282,1.0332,1.0345,1.0211,1.0211,1.0211,0,0,0.9632,0.9666,0.9698,0.9769,0.9802,0.9856,0.9827,0.9886,0.9927,0.9922,0.9997,1.0023,1.0073,1.0156,1.0195,1.018,1.0322,1.0281,1.0286,1.0291,1.034,1.0353,1.0364,1.0215,1.0214,1.0214,0,0,0.9714,0.9744,0.9805,0.9838,0.9886,0.9904,0.9919,0.9967,0.9984,1.0059,1.0057,1.0106,1.02,1.0236,1.0266,1.0362,1.0359,1.0379,1.0422,1.0471,1.0482,1.0491,1.0527,1.0539,1.0387,1.0387,1.0387,0,0.9745,0.9825,0.9837,0.9896,0.9929,0.9925,0.9988,1.0019,1.0083,1.0107,1.0088,1.0206,1.0239,1.0332,1.0355,1.0379,1.0398,1.0373,1.0479,1.0488,1.0497,1.0532,1.0545,1.0389,1.0389,1.0389,1.0388,0,0.9862,0.9918,0.9961,1.0022,1.0059,1.0119,1.0142,1.0179,1.0183,1.0204,1.0282,1.0321,1.0382,1.0405,1.041,1.0499,1.0488,1.0474,1.0443,1.0512,1.0545,1.0558,1.0392,1.0391,1.0391,1.039,0,0,0.9961,1.0026,1.0042,1.007,1.0123,1.0167,1.0228,1.0286,1.0318,1.0362,1.0416,1.0494,1.0482,1.0517,1.0526,1.0569,1.0644,1.055,1.0551,1.0567,1.0746,1.0758,1.0773,1.0641,1.0644,1.0646,1.0743,0,1.0049,1.0156,1.0169,1.0264,1.0317,1.0314,1.0368,1.0407,1.0428,1.0477,1.0501,1.0557,1.0535,1.0556,1.0598,1.0626,1.068,1.0619,1.0693,1.0696,1.0683,1.079,1.0802,1.0891,1.0755,1.0758,1.0759,0,1.0167,1.0213,1.0314,1.036,1.0383,1.0431,1.0485,1.0531,1.0577,1.0589,1.0628,1.0632,1.0697,1.0661,1.0753,1.071,1.0742,1.076,1.0764,1.0773,1.0733,1.0804,1.092,1.0934,1.0779,1.0777,1.0776,0,1.0231,1.0319,1.039,1.0414,1.047,1.0503,1.0529,1.0571,1.0606,1.0654,1.0677,1.0732,1.0763,1.0807,1.0827,1.0799,1.0918,1.0884,1.0932,1.0932,1.0959,1.0957,1.1084,1.0976,1.0976,1.0975,1.0975,0,1.033,1.0392,1.042,1.0464,1.0534,1.0549,1.0618,1.0642,1.068,1.0731,1.0732,1.0779,1.0801,1.0853,1.0869,1.0943,1.0957,1.0971,1.0974,1.0972,1.097,1.0994,1.0989,1.0979,1.0978,1.0977,1.0977,0,1.0415,1.0435,1.0514,1.0559,1.0572,1.0622,1.0662,1.0706,1.0726,1.079,1.0806,1.0838,1.0899,1.0922,1.0997,1.1008,1.1094,1.1092,1.1079,1.108,1.1128,1.1124,1.1276,1.1297,1.1173,1.1174,1.1175,0,1.0477,1.0525,1.0575,1.0608,1.0634,1.0687,1.0722,1.0738,1.0775,1.083,1.0868,1.0928,1.0977,1.1074,1.1106,1.1163,1.1164,1.1213,1.1173,1.1169,1.1167,1.1165,1.1171,1.1221,1.1223,1.1224,1.1225,0,1.0587,1.0595,1.0644,1.0697,1.0738,1.0781,1.0823,1.085,1.0873,1.0914,1.0975,1.1013,1.1089,1.115,1.1209,1.1236,1.1236,1.1237,1.1251,1.125,1.1241,1.1248,1.1101,1.1234,1.1233,1.1232,1.1232,1.1231,1.0664,1.0706,1.0748,1.0804,1.0836,1.0875,1.0919,1.0944,1.0995,1.1057,1.1063,1.113,1.1175,1.1254,1.1284,1.1337,1.1325,1.1345,1.1351,1.1356,1.1361,1.123,1.1348,1.1348,1.1348,1.1347,1.1347,0,1.0775,1.0802,1.0852,1.091,1.0954,1.0946,1.0992,1.103,1.1088,1.1129,1.1177,1.1248,1.1307,1.1342,1.1402,1.1438,1.1439,1.1453,1.1452,1.1459,1.1368,1.135,1.1451,1.1451,1.1451,1.1451,1.1451,1.1451,1.0838,1.091,1.0923,1.1012,1.1039,1.1103,1.113,1.1167,1.1199,1.1278,1.1326,1.1348,1.1388,1.145,1.1504,1.1514,1.1536,1.1552,1.156,1.1475,1.1465,1.1455,1.1438,1.1556,1.1556,1.1647,1.1648,1.1649]}]]